Wetterdaten: Dienstag, 24.10.2017
Datum Zeit Temp. A. Aussen2m Feuchte A. Feuchte 2 Luftdruck Regen Wind Richtung Richtung Sonnenschein
24.10.2017 00:00 12,4 C 0,0 C 82 % 0 % 1019,9 hPa 0,0 l/m 17,1 km/h (3 Bft) S-SW45 200 0 min
24.10.2017 00:05 12,4 C 0,0 C 82 % 0 % 1019,9 hPa 0,0 l/m 13,8 km/h (3 Bft) S-SW22.5 200 0 min
24.10.2017 00:10 12,4 C 0,0 C 82 % 0 % 1019,9 hPa 0,0 l/m 12,7 km/h (3 Bft) S-SW22.5 205 0 min
24.10.2017 00:15 12,4 C 0,0 C 82 % 0 % 1019,9 hPa 0,0 l/m 12,1 km/h (2 Bft) S-SW22.5 205 0 min
24.10.2017 00:20 12,4 C 0,0 C 82 % 0 % 1019,9 hPa 0,0 l/m 17,4 km/h (3 Bft) S-SW45 195 0 min
24.10.2017 00:25 12,4 C 0,0 C 82 % 0 % 1019,9 hPa 0,0 l/m 12,7 km/h (3 Bft) S22.5 185 0 min
24.10.2017 00:30 12,4 C 0,0 C 82 % 0 % 1019,9 hPa 0,0 l/m 12,1 km/h (2 Bft) S22.5 185 0 min
24.10.2017 00:35 12,3 C 0,0 C 82 % 0 % 1019,9 hPa 0,0 l/m 10,0 km/h (2 Bft) S22.5 180 0 min
24.10.2017 00:40 12,3 C 0,0 C 82 % 0 % 1019,9 hPa 0,0 l/m 11,1 km/h (2 Bft) S22.5 180 0 min
24.10.2017 00:45 12,3 C 0,0 C 82 % 0 % 1019,9 hPa 0,0 l/m 9,4 km/h (2 Bft) S22.5 185 0 min
24.10.2017 00:50 12,3 C 0,0 C 82 % 0 % 1019,9 hPa 0,0 l/m 13,5 km/h (3 Bft) S22.5 180 0 min
24.10.2017 00:55 12,2 C 0,0 C 83 % 0 % 1019,9 hPa 0,0 l/m 13,6 km/h (3 Bft) S22.5 180 0 min
24.10.2017 01:00 12,2 C 0,0 C 83 % 0 % 1019,9 hPa 0,0 l/m 11,0 km/h (2 Bft) S22.5 190 0 min
24.10.2017 01:05 12,2 C 0,0 C 83 % 0 % 1019,9 hPa 0,0 l/m 13,6 km/h (3 Bft) S22.5 190 0 min
24.10.2017 01:10 12,2 C 0,0 C 83 % 0 % 1019,9 hPa 0,0 l/m 12,6 km/h (3 Bft) S22.5 175 0 min
24.10.2017 01:15 12,2 C 0,0 C 83 % 0 % 1019,9 hPa 0,0 l/m 12,0 km/h (2 Bft) S22.5 180 0 min
24.10.2017 01:20 12,2 C 0,0 C 83 % 0 % 1019,9 hPa 0,0 l/m 11,0 km/h (2 Bft) S-SO22.5 165 0 min
24.10.2017 01:25 12,2 C 0,0 C 83 % 0 % 1019,9 hPa 0,0 l/m 10,8 km/h (2 Bft) S22.5 175 0 min
24.10.2017 01:30 12,2 C 0,0 C 84 % 0 % 1019,9 hPa 0,0 l/m 12,2 km/h (2 Bft) S22.5 170 0 min
24.10.2017 01:35 12,2 C 0,0 C 84 % 0 % 1019,9 hPa 0,0 l/m 8,1 km/h (2 Bft) S22.5 170 0 min
24.10.2017 01:40 12,2 C 0,0 C 84 % 0 % 1019,9 hPa 0,0 l/m 11,0 km/h (2 Bft) S22.5 170 0 min
24.10.2017 01:45 12,2 C 0,0 C 84 % 0 % 1019,9 hPa 0,0 l/m 13,0 km/h (3 Bft) S22.5 170 0 min
24.10.2017 01:50 12,2 C 0,0 C 84 % 0 % 1019,9 hPa 0,0 l/m 14,5 km/h (3 Bft) S22.5 170 0 min
24.10.2017 01:55 12,3 C 0,0 C 84 % 0 % 1019,9 hPa 0,0 l/m 14,2 km/h (3 Bft) S22.5 180 0 min
24.10.2017 02:00 12,3 C 0,0 C 84 % 0 % 1019,9 hPa 0,0 l/m 11,8 km/h (2 Bft) S22.5 175 0 min
24.10.2017 02:05 12,3 C 0,0 C 84 % 0 % 1019,9 hPa 0,0 l/m 8,5 km/h (2 Bft) S22.5 175 0 min
24.10.2017 02:10 12,3 C 0,0 C 83 % 0 % 1019,9 hPa 0,0 l/m 9,7 km/h (2 Bft) S-SO22.5 165 0 min
24.10.2017 02:15 12,3 C 0,0 C 84 % 0 % 1019,9 hPa 0,0 l/m 11,9 km/h (2 Bft) S-SO22.5 165 0 min
24.10.2017 02:20 12,3 C 0,0 C 84 % 0 % 1019,9 hPa 0,0 l/m 12,8 km/h (3 Bft) S22.5 170 0 min
24.10.2017 02:25 12,3 C 0,0 C 84 % 0 % 1019,9 hPa 0,0 l/m 12,0 km/h (2 Bft) S-SO22.5 165 0 min
24.10.2017 02:30 12,2 C 0,0 C 84 % 0 % 1019,9 hPa 0,0 l/m 13,3 km/h (3 Bft) S-SO22.5 160 0 min
24.10.2017 02:35 12,2 C 0,0 C 84 % 0 % 1019,9 hPa 0,0 l/m 12,0 km/h (2 Bft) S22.5 170 0 min
24.10.2017 02:40 12,2 C 0,0 C 84 % 0 % 1019,9 hPa 0,0 l/m 16,6 km/h (3 Bft) S45 170 0 min
24.10.2017 02:45 12,2 C 0,0 C 84 % 0 % 1019,9 hPa 0,0 l/m 14,0 km/h (3 Bft) S-SO22.5 160 0 min
24.10.2017 02:50 12,2 C 0,0 C 84 % 0 % 1019,9 hPa 0,0 l/m 16,8 km/h (3 Bft) S-SO22.5 165 0 min
24.10.2017 02:55 12,2 C 0,0 C 84 % 0 % 1019,9 hPa 0,0 l/m 16,8 km/h (3 Bft) S-SO22.5 165 0 min
24.10.2017 03:00 12,2 C 0,0 C 84 % 0 % 1019,9 hPa 0,0 l/m 13,0 km/h (3 Bft) S-SO22.5 160 0 min
24.10.2017 03:05 12,1 C 0,0 C 84 % 0 % 1019,9 hPa 0,0 l/m 12,3 km/h (2 Bft) S-SO22.5 160 0 min
24.10.2017 03:10 12,1 C 0,0 C 84 % 0 % 1019,9 hPa 0,0 l/m 16,9 km/h (3 Bft) S-SO22.5 155 0 min
24.10.2017 03:15 12,1 C 0,0 C 84 % 0 % 1019,9 hPa 0,0 l/m 11,1 km/h (2 Bft) S22.5 170 0 min
24.10.2017 03:20 12,1 C 0,0 C 84 % 0 % 1019,9 hPa 0,0 l/m 14,3 km/h (3 Bft) S-SO22.5 165 0 min
24.10.2017 03:25 12,1 C 0,0 C 85 % 0 % 1019,9 hPa 0,0 l/m 13,1 km/h (3 Bft) S-SO22.5 160 0 min
24.10.2017 03:30 12,1 C 0,0 C 85 % 0 % 1019,9 hPa 0,0 l/m 12,8 km/h (3 Bft) S-SO22.5 160 0 min
24.10.2017 03:35 12,1 C 0,0 C 85 % 0 % 1019,9 hPa 0,0 l/m 13,8 km/h (3 Bft) S-SO22.5 155 0 min
24.10.2017 03:40 12,1 C 0,0 C 85 % 0 % 1019,9 hPa 0,0 l/m 12,9 km/h (3 Bft) S-SO22.5 165 0 min
24.10.2017 03:45 12,0 C 0,0 C 85 % 0 % 1019,9 hPa 0,0 l/m 13,6 km/h (3 Bft) S22.5 180 0 min
24.10.2017 03:50 12,1 C 0,0 C 85 % 0 % 1019,9 hPa 0,0 l/m 13,1 km/h (3 Bft) S22.5 170 0 min
24.10.2017 03:55 12,0 C 0,0 C 85 % 0 % 1019,9 hPa 0,0 l/m 12,8 km/h (3 Bft) S-SO22.5 165 0 min
24.10.2017 04:00 12,0 C 0,0 C 85 % 0 % 1019,9 hPa 0,0 l/m 12,7 km/h (3 Bft) S-SO22.5 165 0 min
24.10.2017 04:05 12,0 C 0,0 C 85 % 0 % 1019,9 hPa 0,0 l/m 10,1 km/h (2 Bft) S-SO22.5 160 0 min
24.10.2017 04:10 12,0 C 0,0 C 85 % 0 % 1019,9 hPa 0,0 l/m 13,0 km/h (3 Bft) S-SO22.5 165 0 min
24.10.2017 04:15 12,0 C 0,0 C 85 % 0 % 1019,9 hPa 0,0 l/m 13,8 km/h (3 Bft) S-SO22.5 160 0 min
24.10.2017 04:20 12,0 C 0,0 C 85 % 0 % 1019,9 hPa 0,0 l/m 14,4 km/h (3 Bft) S-SO22.5 160 0 min
24.10.2017 04:25 12,0 C 0,0 C 86 % 0 % 1019,9 hPa 0,0 l/m 15,1 km/h (3 Bft) S-SO45 165 0 min
24.10.2017 04:30 12,0 C 0,0 C 86 % 0 % 1019,9 hPa 0,0 l/m 14,4 km/h (3 Bft) S-SO22.5 165 0 min
24.10.2017 04:35 12,0 C 0,0 C 86 % 0 % 1019,9 hPa 0,0 l/m 14,9 km/h (3 Bft) S-SO22.5 165 0 min
24.10.2017 04:40 12,0 C 0,0 C 86 % 0 % 1019,9 hPa 0,0 l/m 13,5 km/h (3 Bft) S-SO22.5 165 0 min
24.10.2017 04:44 12,0 C 0,0 C 86 % 0 % 1019,9 hPa 0,0 l/m 13,5 km/h (3 Bft) S-SO22.5 160 0 min
24.10.2017 04:50 12,0 C 0,0 C 86 % 0 % 1019,9 hPa 0,0 l/m 15,6 km/h (3 Bft) S-SO22.5 165 0 min
24.10.2017 04:55 11,9 C 0,0 C 87 % 0 % 1019,9 hPa 0,1 l/m 16,4 km/h (3 Bft) S-SO22.5 160 0 min
24.10.2017 05:00 11,9 C 0,0 C 87 % 0 % 1019,9 hPa 0,0 l/m 13,4 km/h (3 Bft) S-SO22.5 160 0 min
24.10.2017 05:05 11,9 C 0,0 C 87 % 0 % 1019,9 hPa 0,1 l/m 16,9 km/h (3 Bft) S-SO22.5 160 0 min
24.10.2017 05:10 11,9 C 0,0 C 87 % 0 % 1019,9 hPa 0,0 l/m 11,7 km/h (2 Bft) S-SO45 160 0 min
24.10.2017 05:15 11,9 C 0,0 C 87 % 0 % 1019,9 hPa 0,0 l/m 16,6 km/h (3 Bft) S-SO22.5 160 0 min
24.10.2017 05:20 11,9 C 0,0 C 87 % 0 % 1019,9 hPa 0,1 l/m 12,4 km/h (2 Bft) S22.5 175 0 min
24.10.2017 05:25 11,9 C 0,0 C 87 % 0 % 1019,9 hPa 0,0 l/m 15,1 km/h (3 Bft) S22.5 170 0 min
24.10.2017 05:30 11,9 C 0,0 C 87 % 0 % 1019,9 hPa 0,0 l/m 14,2 km/h (3 Bft) S22.5 170 0 min
24.10.2017 05:35 11,9 C 0,0 C 87 % 0 % 1019,9 hPa 0,0 l/m 16,2 km/h (3 Bft) S-SO45 160 0 min
24.10.2017 05:40 11,9 C 0,0 C 87 % 0 % 1019,9 hPa 0,0 l/m 15,2 km/h (3 Bft) S-SO22.5 160 0 min
24.10.2017 05:45 11,9 C 0,0 C 87 % 0 % 1019,9 hPa 0,0 l/m 15,0 km/h (3 Bft) S-SO45 160 0 min
24.10.2017 05:50 11,9 C 0,0 C 88 % 0 % 1019,9 hPa 0,0 l/m 16,1 km/h (3 Bft) S-SO45 165 0 min
24.10.2017 05:55 11,9 C 0,0 C 88 % 0 % 1019,9 hPa 0,0 l/m 15,1 km/h (3 Bft) S22.5 170 0 min
24.10.2017 06:00 11,9 C 0,0 C 88 % 0 % 1019,9 hPa 0,0 l/m 14,5 km/h (3 Bft) S-SO22.5 165 0 min
24.10.2017 06:05 11,9 C 0,0 C 88 % 0 % 1019,9 hPa 0,0 l/m 11,8 km/h (2 Bft) S-SO45 160 0 min
24.10.2017 06:10 11,9 C 0,0 C 88 % 0 % 1019,9 hPa 0,0 l/m 11,7 km/h (2 Bft) S22.5 180 0 min
24.10.2017 06:15 11,9 C 0,0 C 88 % 0 % 1019,9 hPa 0,0 l/m 13,4 km/h (3 Bft) S45 170 0 min
24.10.2017 06:20 11,9 C 0,0 C 88 % 0 % 1018,9 hPa 0,1 l/m 12,8 km/h (3 Bft) S-SO22.5 165 0 min
24.10.2017 06:25 12,0 C 0,0 C 88 % 0 % 1018,9 hPa 0,0 l/m 14,6 km/h (3 Bft) S22.5 175 0 min
24.10.2017 06:30 12,0 C 0,0 C 88 % 0 % 1019,9 hPa 0,0 l/m 13,1 km/h (3 Bft) S22.5 180 0 min
24.10.2017 06:35 12,0 C 0,0 C 88 % 0 % 1019,9 hPa 0,0 l/m 14,4 km/h (3 Bft) S22.5 175 0 min
24.10.2017 06:39 12,0 C 0,0 C 88 % 0 % 1019,9 hPa 0,0 l/m 17,0 km/h (3 Bft) S-SO22.5 160 0 min
24.10.2017 06:45 12,0 C 0,0 C 88 % 0 % 1019,9 hPa 0,0 l/m 19,0 km/h (3 Bft) S45 170 0 min
24.10.2017 06:50 12,0 C 0,0 C 88 % 0 % 1019,9 hPa 0,0 l/m 14,6 km/h (3 Bft) S22.5 170 0 min
24.10.2017 06:55 12,0 C 0,0 C 88 % 0 % 1019,9 hPa 0,0 l/m 14,5 km/h (3 Bft) S22.5 175 0 min
24.10.2017 07:00 12,0 C 0,0 C 88 % 0 % 1019,9 hPa 0,0 l/m 14,7 km/h (3 Bft) S22.5 170 0 min
24.10.2017 07:05 12,0 C 0,0 C 88 % 0 % 1019,9 hPa 0,1 l/m 18,5 km/h (3 Bft) S-SO45 165 0 min
24.10.2017 07:10 12,0 C 0,0 C 88 % 0 % 1018,9 hPa 0,0 l/m 15,8 km/h (3 Bft) S45 175 0 min
24.10.2017 07:15 12,0 C 0,0 C 88 % 0 % 1018,9 hPa 0,0 l/m 18,4 km/h (3 Bft) S45 170 0 min
24.10.2017 07:20 12,0 C 0,0 C 89 % 0 % 1018,9 hPa 0,0 l/m 19,6 km/h (3 Bft) S22.5 170 0 min
24.10.2017 07:25 12,0 C 0,0 C 89 % 0 % 1018,9 hPa 0,0 l/m 17,9 km/h (3 Bft) S-SO22.5 165 0 min
24.10.2017 07:30 12,0 C 0,0 C 89 % 0 % 1018,9 hPa 0,0 l/m 18,0 km/h (3 Bft) S-SO22.5 165 0 min
24.10.2017 07:35 12,0 C 0,0 C 89 % 0 % 1018,9 hPa 0,0 l/m 19,1 km/h (3 Bft) S45 170 0 min
24.10.2017 07:40 12,0 C 0,0 C 89 % 0 % 1018,9 hPa 0,0 l/m 18,6 km/h (3 Bft) S45 170 0 min
24.10.2017 07:45 12,0 C 0,0 C 89 % 0 % 1018,9 hPa 0,0 l/m 16,8 km/h (3 Bft) S-SO22.5 165 0 min
24.10.2017 07:50 12,0 C 0,0 C 89 % 0 % 1018,9 hPa 0,0 l/m 19,0 km/h (3 Bft) S22.5 170 0 min
24.10.2017 07:55 12,0 C 0,0 C 89 % 0 % 1018,9 hPa 0,0 l/m 15,9 km/h (3 Bft) S45 180 0 min
24.10.2017 08:00 12,0 C 0,0 C 89 % 0 % 1018,9 hPa 0,0 l/m 17,0 km/h (3 Bft) S45 170 0 min
24.10.2017 08:05 12,0 C 0,0 C 89 % 0 % 1018,9 hPa 0,0 l/m 16,0 km/h (3 Bft) S22.5 170 0 min
24.10.2017 08:10 12,0 C 0,0 C 89 % 0 % 1019,9 hPa 0,0 l/m 17,6 km/h (3 Bft) S45 175 0 min
24.10.2017 08:15 12,0 C 0,0 C 89 % 0 % 1019,9 hPa 0,0 l/m 15,6 km/h (3 Bft) S22.5 180 0 min
24.10.2017 08:20 12,1 C 0,0 C 89 % 0 % 1019,9 hPa 0,0 l/m 15,6 km/h (3 Bft) S45 185 0 min
24.10.2017 08:25 12,1 C 0,0 C 89 % 0 % 1019,9 hPa 0,1 l/m 15,0 km/h (3 Bft) S22.5 170 0 min
24.10.2017 08:30 12,1 C 0,0 C 89 % 0 % 1019,9 hPa 0,0 l/m 18,1 km/h (3 Bft) S-SO22.5 160 0 min
24.10.2017 08:35 12,1 C 0,0 C 89 % 0 % 1019,9 hPa 0,0 l/m 16,5 km/h (3 Bft) S45 175 0 min
24.10.2017 08:40 12,1 C 0,0 C 89 % 0 % 1019,9 hPa 0,0 l/m 14,8 km/h (3 Bft) S22.5 170 0 min
24.10.2017 08:45 12,1 C 0,0 C 89 % 0 % 1019,9 hPa 0,0 l/m 14,8 km/h (3 Bft) S22.5 170 0 min
24.10.2017 08:50 12,1 C 0,0 C 89 % 0 % 1019,9 hPa 0,0 l/m 18,7 km/h (3 Bft) S-SO22.5 165 0 min
24.10.2017 08:55 12,2 C 0,0 C 89 % 0 % 1019,9 hPa 0,1 l/m 15,4 km/h (3 Bft) S-SO22.5 165 0 min
24.10.2017 09:00 12,2 C 0,0 C 89 % 0 % 1019,9 hPa 0,0 l/m 16,1 km/h (3 Bft) S-SO22.5 165 0 min
24.10.2017 09:05 12,1 C 0,0 C 89 % 0 % 1019,9 hPa 0,0 l/m 14,0 km/h (3 Bft) S22.5 170 0 min
24.10.2017 09:10 12,2 C 0,0 C 89 % 0 % 1019,9 hPa 0,0 l/m 15,0 km/h (3 Bft) S22.5 170 0 min
24.10.2017 09:15 12,2 C 0,0 C 89 % 0 % 1019,9 hPa 0,0 l/m 19,4 km/h (3 Bft) S-SO45 165 0 min
24.10.2017 09:20 12,2 C 0,0 C 89 % 0 % 1019,9 hPa 0,0 l/m 16,1 km/h (3 Bft) S45 170 0 min
24.10.2017 09:25 12,3 C 0,0 C 89 % 0 % 1019,9 hPa 0,0 l/m 17,0 km/h (3 Bft) S45 180 0 min
24.10.2017 09:30 12,3 C 0,0 C 89 % 0 % 1019,9 hPa 0,0 l/m 14,0 km/h (3 Bft) S-SO45 165 0 min
24.10.2017 09:35 12,4 C 0,0 C 89 % 0 % 1019,9 hPa 0,0 l/m 13,0 km/h (3 Bft) S-SO22.5 165 0 min
24.10.2017 09:40 12,4 C 0,0 C 89 % 0 % 1019,9 hPa 0,0 l/m 11,1 km/h (2 Bft) S-SO22.5 165 0 min
24.10.2017 09:45 12,5 C 0,0 C 89 % 0 % 1019,9 hPa 0,0 l/m 11,1 km/h (2 Bft) S-SO22.5 165 0 min
24.10.2017 09:50 12,5 C 0,0 C 89 % 0 % 1019,9 hPa 0,0 l/m 11,8 km/h (2 Bft) S22.5 175 0 min
24.10.2017 09:55 12,6 C 0,0 C 89 % 0 % 1019,9 hPa 0,0 l/m 14,0 km/h (3 Bft) S22.5 170 0 min
24.10.2017 10:00 12,7 C 0,0 C 89 % 0 % 1019,9 hPa 0,0 l/m 16,1 km/h (3 Bft) S45 180 0 min
24.10.2017 10:05 12,7 C 0,0 C 89 % 0 % 1019,9 hPa 0,0 l/m 14,2 km/h (3 Bft) S22.5 180 0 min
24.10.2017 10:10 12,8 C 0,0 C 89 % 0 % 1019,9 hPa 0,0 l/m 14,3 km/h (3 Bft) S45 185 0 min
24.10.2017 10:15 12,9 C 0,0 C 89 % 0 % 1019,9 hPa 0,0 l/m 15,6 km/h (3 Bft) S22.5 180 0 min
24.10.2017 10:20 12,8 C 0,0 C 89 % 0 % 1019,9 hPa 0,0 l/m 15,1 km/h (3 Bft) S22.5 180 0 min
24.10.2017 10:25 13,0 C 0,0 C 89 % 0 % 1019,9 hPa 0,0 l/m 16,6 km/h (3 Bft) S22.5 170 0 min
24.10.2017 10:30 13,1 C 0,0 C 89 % 0 % 1019,9 hPa 0,0 l/m 14,8 km/h (3 Bft) S22.5 170 0 min
24.10.2017 10:35 13,2 C 0,0 C 89 % 0 % 1019,9 hPa 0,0 l/m 16,0 km/h (3 Bft) S22.5 185 0 min
24.10.2017 10:40 13,2 C 0,0 C 89 % 0 % 1019,9 hPa 0,0 l/m 18,5 km/h (3 Bft) S22.5 175 0 min
24.10.2017 10:45 13,2 C 0,0 C 89 % 0 % 1019,9 hPa 0,0 l/m 14,9 km/h (3 Bft) S22.5 175 0 min
24.10.2017 10:50 13,2 C 0,0 C 89 % 0 % 1019,9 hPa 0,0 l/m 13,0 km/h (3 Bft) S45 185 0 min
24.10.2017 10:55 13,3 C 0,0 C 89 % 0 % 1019,9 hPa 0,0 l/m 13,8 km/h (3 Bft) S-SO22.5 165 0 min
24.10.2017 11:00 13,4 C 0,0 C 89 % 0 % 1019,9 hPa 0,0 l/m 14,3 km/h (3 Bft) S-SO22.5 165 0 min
24.10.2017 11:05 13,5 C 0,0 C 89 % 0 % 1019,9 hPa 0,0 l/m 15,3 km/h (3 Bft) S-SO45 165 0 min
24.10.2017 11:10 13,6 C 0,0 C 89 % 0 % 1019,9 hPa 0,0 l/m 21,5 km/h (4 Bft) S45 175 0 min
24.10.2017 11:15 13,6 C 0,0 C 89 % 0 % 1019,9 hPa 0,0 l/m 20,0 km/h (4 Bft) S22.5 170 0 min
24.10.2017 11:20 13,8 C 0,0 C 89 % 0 % 1019,9 hPa 0,0 l/m 17,4 km/h (3 Bft) S-SO22.5 165 0 min
24.10.2017 11:25 13,8 C 0,0 C 89 % 0 % 1019,9 hPa 0,0 l/m 14,0 km/h (3 Bft) S-SO45 160 0 min
24.10.2017 11:30 13,9 C 0,0 C 89 % 0 % 1019,9 hPa 0,0 l/m 14,0 km/h (3 Bft) S-SO45 160 0 min
24.10.2017 11:35 13,9 C 0,0 C 88 % 0 % 1019,9 hPa 0,0 l/m 13,7 km/h (3 Bft) S-SO22.5 165 0 min
24.10.2017 11:40 13,9 C 0,0 C 88 % 0 % 1019,9 hPa 0,0 l/m 14,0 km/h (3 Bft) S-SO22.5 160 0 min
24.10.2017 11:45 14,0 C 0,0 C 88 % 0 % 1019,9 hPa 0,0 l/m 12,3 km/h (2 Bft) S22.5 170 0 min
24.10.2017 11:50 13,9 C 0,0 C 88 % 0 % 1019,9 hPa 0,0 l/m 9,7 km/h (2 Bft) S22.5 170 0 min
24.10.2017 11:55 14,1 C 0,0 C 88 % 0 % 1019,9 hPa 0,0 l/m 12,4 km/h (2 Bft) S22.5 170 0 min
24.10.2017 12:00 14,1 C 0,0 C 88 % 0 % 1019,9 hPa 0,0 l/m 11,9 km/h (2 Bft) S22.5 170 0 min
24.10.2017 12:05 14,2 C 0,0 C 88 % 0 % 1019,9 hPa 0,0 l/m 12,8 km/h (3 Bft) S-SO22.5 165 0 min
24.10.2017 12:10 14,4 C 0,0 C 88 % 0 % 1019,9 hPa 0,0 l/m 15,1 km/h (3 Bft) S22.5 170 0 min
24.10.2017 12:15 14,4 C 0,0 C 88 % 0 % 1019,9 hPa 0,0 l/m 10,7 km/h (2 Bft) S22.5 170 0 min
24.10.2017 12:20 14,4 C 0,0 C 88 % 0 % 1019,9 hPa 0,0 l/m 13,6 km/h (3 Bft) S-SO22.5 165 0 min
24.10.2017 12:25 14,4 C 0,0 C 88 % 0 % 1019,9 hPa 0,0 l/m 11,2 km/h (2 Bft) S22.5 170 0 min
24.10.2017 12:30 14,5 C 0,0 C 88 % 0 % 1019,9 hPa 0,0 l/m 12,8 km/h (3 Bft) S22.5 170 0 min
24.10.2017 12:35 14,4 C 0,0 C 87 % 0 % 1019,9 hPa 0,0 l/m 12,3 km/h (2 Bft) S-SO22.5 160 0 min
24.10.2017 12:40 14,6 C 0,0 C 87 % 0 % 1019,9 hPa 0,0 l/m 11,5 km/h (2 Bft) S22.5 170 0 min
24.10.2017 12:45 14,7 C 0,0 C 87 % 0 % 1019,9 hPa 0,0 l/m 13,8 km/h (3 Bft) S22.5 170 0 min
24.10.2017 12:50 14,7 C 0,0 C 87 % 0 % 1019,9 hPa 0,0 l/m 12,0 km/h (2 Bft) S22.5 170 0 min
24.10.2017 12:55 14,8 C 0,0 C 87 % 0 % 1019,9 hPa 0,0 l/m 11,8 km/h (2 Bft) S-SO22.5 165 0 min
24.10.2017 13:00 14,8 C 0,0 C 87 % 0 % 1019,9 hPa 0,0 l/m 15,2 km/h (3 Bft) S22.5 180 0 min
24.10.2017 13:05 14,9 C 0,0 C 87 % 0 % 1019,9 hPa 0,0 l/m 17,5 km/h (3 Bft) S22.5 180 0 min
24.10.2017 13:09 15,0 C 0,0 C 86 % 0 % 1019,9 hPa 0,0 l/m 15,0 km/h (3 Bft) S22.5 190 0 min
24.10.2017 13:15 15,0 C 0,0 C 86 % 0 % 1019,9 hPa 0,0 l/m 15,8 km/h (3 Bft) S22.5 185 0 min
24.10.2017 13:20 15,0 C 0,0 C 86 % 0 % 1019,9 hPa 0,0 l/m 14,2 km/h (3 Bft) S22.5 180 0 min
24.10.2017 13:25 15,0 C 0,0 C 86 % 0 % 1019,9 hPa 0,0 l/m 14,1 km/h (3 Bft) S-SW22.5 195 0 min
24.10.2017 13:30 15,0 C 0,0 C 86 % 0 % 1019,9 hPa 0,0 l/m 18,9 km/h (3 Bft) S45 190 0 min
24.10.2017 13:34 15,0 C 0,0 C 86 % 0 % 1019,9 hPa 0,0 l/m 16,1 km/h (3 Bft) S-SW45 195 0 min
24.10.2017 13:40 15,0 C 0,0 C 86 % 0 % 1018,9 hPa 0,0 l/m 15,3 km/h (3 Bft) S-SW22.5 200 0 min
24.10.2017 13:45 15,1 C 0,0 C 86 % 0 % 1018,9 hPa 0,0 l/m 14,7 km/h (3 Bft) S45 185 0 min
24.10.2017 13:50 15,3 C 0,0 C 85 % 0 % 1018,9 hPa 0,0 l/m 15,0 km/h (3 Bft) S-SW45 195 0 min
24.10.2017 13:55 15,3 C 0,0 C 85 % 0 % 1018,9 hPa 0,0 l/m 14,6 km/h (3 Bft) S-SW45 195 0 min
24.10.2017 14:00 15,4 C 0,0 C 85 % 0 % 1018,9 hPa 0,0 l/m 18,0 km/h (3 Bft) S-SW45 210 0 min
24.10.2017 14:05 15,4 C 0,0 C 84 % 0 % 1018,9 hPa 0,0 l/m 20,5 km/h (4 Bft) SW45 215 0 min
24.10.2017 14:10 15,4 C 0,0 C 84 % 0 % 1018,9 hPa 0,0 l/m 24,6 km/h (4 Bft) SW22.5 215 0 min
24.10.2017 14:15 15,6 C 0,0 C 84 % 0 % 1018,9 hPa 0,0 l/m 26,3 km/h (4 Bft) SW67.5 225 0 min
24.10.2017 14:20 15,6 C 0,0 C 83 % 0 % 1018,9 hPa 0,0 l/m 24,6 km/h (4 Bft) SW45 220 0 min
24.10.2017 14:25 15,6 C 0,0 C 83 % 0 % 1018,9 hPa 0,0 l/m 23,9 km/h (4 Bft) SW22.5 230 0 min
24.10.2017 14:30 15,6 C 0,0 C 83 % 0 % 1018,9 hPa 0,0 l/m 22,6 km/h (4 Bft) SW45 230 0 min
24.10.2017 14:35 15,6 C 0,0 C 83 % 0 % 1018,9 hPa 0,0 l/m 19,6 km/h (3 Bft) SW45 230 0 min
24.10.2017 14:40 15,6 C 0,0 C 83 % 0 % 1018,9 hPa 0,0 l/m 20,5 km/h (4 Bft) SW22.5 225 0 min
24.10.2017 14:45 15,7 C 0,0 C 83 % 0 % 1018,9 hPa 0,0 l/m 19,7 km/h (3 Bft) SW22.5 220 0 min
24.10.2017 14:50 15,7 C 0,0 C 83 % 0 % 1018,9 hPa 0,0 l/m 27,0 km/h (5 Bft) SW45 230 0 min
24.10.2017 14:55 15,7 C 0,0 C 83 % 0 % 1018,9 hPa 0,0 l/m 27,0 km/h (5 Bft) SW45 230 0 min
24.10.2017 15:00 15,8 C 0,0 C 83 % 0 % 1018,9 hPa 0,0 l/m 24,0 km/h (4 Bft) SW22.5 220 0 min
24.10.2017 15:05 15,8 C 0,0 C 83 % 0 % 1018,9 hPa 0,0 l/m 23,6 km/h (4 Bft) SW45 230 0 min
24.10.2017 15:10 15,9 C 0,0 C 82 % 0 % 1018,9 hPa 0,0 l/m 21,8 km/h (4 Bft) W-SW67.5 240 0 min
24.10.2017 15:15 15,9 C 0,0 C 82 % 0 % 1018,9 hPa 0,0 l/m 23,7 km/h (4 Bft) SW45 230 0 min
24.10.2017 15:20 15,9 C 0,0 C 83 % 0 % 1018,9 hPa 0,0 l/m 20,5 km/h (4 Bft) SW45 225 0 min
24.10.2017 15:24 15,9 C 0,0 C 82 % 0 % 1018,9 hPa 0,0 l/m 21,8 km/h (4 Bft) W-SW22.5 240 0 min
24.10.2017 15:30 15,9 C 0,0 C 82 % 0 % 1018,9 hPa 0,0 l/m 22,4 km/h (4 Bft) SW45 230 0 min
24.10.2017 15:35 16,0 C 0,0 C 82 % 0 % 1018,9 hPa 0,0 l/m 19,3 km/h (3 Bft) SW45 220 0 min
24.10.2017 15:40 15,9 C 0,0 C 82 % 0 % 1018,9 hPa 0,0 l/m 18,0 km/h (3 Bft) SW45 220 0 min
24.10.2017 15:45 15,9 C 0,0 C 83 % 0 % 1018,9 hPa 0,0 l/m 24,6 km/h (4 Bft) SW45 230 0 min
24.10.2017 15:49 15,9 C 0,0 C 83 % 0 % 1018,9 hPa 0,0 l/m 24,9 km/h (4 Bft) SW45 225 0 min
24.10.2017 15:55 15,9 C 0,0 C 83 % 0 % 1018,9 hPa 0,0 l/m 23,9 km/h (4 Bft) SW67.5 225 0 min
24.10.2017 16:00 15,8 C 0,0 C 83 % 0 % 1018,9 hPa 0,0 l/m 25,5 km/h (4 Bft) SW45 220 0 min
24.10.2017 16:04 15,8 C 0,0 C 83 % 0 % 1018,9 hPa 0,0 l/m 22,2 km/h (4 Bft) SW67.5 225 0 min
24.10.2017 16:10 15,8 C 0,0 C 83 % 0 % 1018,9 hPa 0,0 l/m 25,3 km/h (4 Bft) SW45 230 0 min
24.10.2017 16:15 15,7 C 0,0 C 84 % 0 % 1018,9 hPa 0,0 l/m 19,7 km/h (3 Bft) SW45 225 0 min
24.10.2017 16:20 15,7 C 0,0 C 84 % 0 % 1018,9 hPa 0,0 l/m 24,4 km/h (4 Bft) SW45 230 0 min
24.10.2017 16:25 15,6 C 0,0 C 84 % 0 % 1018,9 hPa 0,0 l/m 25,0 km/h (4 Bft) SW67.5 230 0 min
24.10.2017 16:29 15,6 C 0,0 C 84 % 0 % 1018,9 hPa 0,0 l/m 16,8 km/h (3 Bft) SW45 220 0 min
24.10.2017 16:35 15,6 C 0,0 C 85 % 0 % 1018,9 hPa 0,0 l/m 20,2 km/h (4 Bft) SW67.5 225 0 min
24.10.2017 16:40 15,6 C 0,0 C 85 % 0 % 1018,9 hPa 0,0 l/m 23,6 km/h (4 Bft) SW45 230 0 min
24.10.2017 16:45 15,6 C 0,0 C 85 % 0 % 1018,9 hPa 0,0 l/m 24,4 km/h (4 Bft) SW67.5 215 0 min
24.10.2017 16:50 15,6 C 0,0 C 85 % 0 % 1018,9 hPa 0,0 l/m 26,1 km/h (4 Bft) SW22.5 220 0 min
24.10.2017 16:55 15,7 C 0,0 C 85 % 0 % 1018,9 hPa 0,0 l/m 26,0 km/h (4 Bft) SW22.5 225 0 min
24.10.2017 17:00 15,7 C 0,0 C 85 % 0 % 1018,9 hPa 0,0 l/m 20,5 km/h (4 Bft) SW45 215 0 min
24.10.2017 17:05 15,6 C 0,0 C 85 % 0 % 1018,9 hPa 0,0 l/m 19,3 km/h (3 Bft) SW45 230 0 min
24.10.2017 17:09 15,6 C 0,0 C 85 % 0 % 1018,9 hPa 0,0 l/m 23,8 km/h (4 Bft) SW45 230 0 min
24.10.2017 17:15 15,6 C 0,0 C 85 % 0 % 1018,9 hPa 0,0 l/m 30,1 km/h (5 Bft) SW45 220 0 min
24.10.2017 17:20 15,6 C 0,0 C 85 % 0 % 1018,9 hPa 0,0 l/m 23,0 km/h (4 Bft) SW45 215 0 min
24.10.2017 17:25 15,6 C 0,0 C 85 % 0 % 1018,9 hPa 0,0 l/m 19,8 km/h (3 Bft) SW22.5 220 0 min
24.10.2017 17:30 15,6 C 0,0 C 85 % 0 % 1018,9 hPa 0,0 l/m 20,3 km/h (4 Bft) S-SW45 210 0 min
24.10.2017 17:35 15,5 C 0,0 C 85 % 0 % 1018,9 hPa 0,0 l/m 17,1 km/h (3 Bft) SW22.5 225 0 min
24.10.2017 17:40 15,5 C 0,0 C 85 % 0 % 1018,9 hPa 0,0 l/m 18,6 km/h (3 Bft) S-SW45 210 0 min
24.10.2017 17:45 15,6 C 0,0 C 85 % 0 % 1018,9 hPa 0,0 l/m 20,1 km/h (4 Bft) SW45 215 0 min
24.10.2017 17:50 15,6 C 0,0 C 85 % 0 % 1018,9 hPa 0,0 l/m 19,8 km/h (3 Bft) SW45 215 0 min
24.10.2017 17:55 15,6 C 0,0 C 85 % 0 % 1018,9 hPa 0,0 l/m 18,4 km/h (3 Bft) S-SW45 210 0 min
24.10.2017 18:00 15,6 C 0,0 C 85 % 0 % 1018,9 hPa 0,0 l/m 18,0 km/h (3 Bft) S-SW22.5 210 0 min
24.10.2017 18:05 15,6 C 0,0 C 85 % 0 % 1018,9 hPa 0,0 l/m 18,0 km/h (3 Bft) S-SW22.5 210 0 min
24.10.2017 18:10 15,5 C 0,0 C 85 % 0 % 1018,9 hPa 0,0 l/m 17,5 km/h (3 Bft) S-SW22.5 205 0 min
24.10.2017 18:15 15,5 C 0,0 C 85 % 0 % 1018,9 hPa 0,0 l/m 18,3 km/h (3 Bft) S-SW22.5 210 0 min
24.10.2017 18:20 15,5 C 0,0 C 85 % 0 % 1018,9 hPa 0,0 l/m 17,0 km/h (3 Bft) S-SW45 205 0 min
24.10.2017 18:25 15,6 C 0,0 C 85 % 0 % 1018,9 hPa 0,0 l/m 20,3 km/h (4 Bft) S-SW22.5 205 0 min
24.10.2017 18:30 15,6 C 0,0 C 85 % 0 % 1018,9 hPa 0,0 l/m 20,3 km/h (4 Bft) S-SW22.5 205 0 min
24.10.2017 18:35 15,6 C 0,0 C 85 % 0 % 1018,9 hPa 0,0 l/m 18,1 km/h (3 Bft) SW22.5 215 0 min
24.10.2017 18:40 15,6 C 0,0 C 85 % 0 % 1018,9 hPa 0,0 l/m 23,1 km/h (4 Bft) SW45 220 0 min
24.10.2017 18:45 15,6 C 0,0 C 85 % 0 % 1018,9 hPa 0,0 l/m 16,6 km/h (3 Bft) SW22.5 215 0 min
24.10.2017 18:50 15,6 C 0,0 C 85 % 0 % 1018,9 hPa 0,0 l/m 18,8 km/h (3 Bft) S-SW45 210 0 min
24.10.2017 18:55 15,7 C 0,0 C 85 % 0 % 1018,9 hPa 0,0 l/m 22,6 km/h (4 Bft) SW45 230 0 min
24.10.2017 19:00 15,7 C 0,0 C 85 % 0 % 1018,9 hPa 0,0 l/m 21,0 km/h (4 Bft) SW45 220 0 min
24.10.2017 19:05 15,7 C 0,0 C 85 % 0 % 1018,9 hPa 0,0 l/m 24,3 km/h (4 Bft) SW45 225 0 min
24.10.2017 19:10 15,7 C 0,0 C 85 % 0 % 1018,9 hPa 0,0 l/m 24,6 km/h (4 Bft) SW45 215 0 min
24.10.2017 19:15 15,7 C 0,0 C 85 % 0 % 1018,9 hPa 0,0 l/m 24,3 km/h (4 Bft) SW45 225 0 min
24.10.2017 19:20 15,7 C 0,0 C 85 % 0 % 1018,9 hPa 0,0 l/m 21,5 km/h (4 Bft) SW45 220 0 min
24.10.2017 19:25 15,7 C 0,0 C 85 % 0 % 1018,9 hPa 0,0 l/m 24,5 km/h (4 Bft) SW22.5 225 0 min
24.10.2017 19:30 15,8 C 0,0 C 85 % 0 % 1018,9 hPa 0,0 l/m 26,6 km/h (4 Bft) SW22.5 220 0 min
24.10.2017 19:35 15,8 C 0,0 C 85 % 0 % 1018,9 hPa 0,0 l/m 26,3 km/h (4 Bft) SW45 225 0 min
24.10.2017 19:40 15,8 C 0,0 C 85 % 0 % 1018,9 hPa 0,0 l/m 22,0 km/h (4 Bft) SW45 225 0 min
24.10.2017 19:45 15,8 C 0,0 C 85 % 0 % 1018,9 hPa 0,0 l/m 18,1 km/h (3 Bft) SW45 220 0 min
24.10.2017 19:50 15,8 C 0,0 C 85 % 0 % 1018,9 hPa 0,0 l/m 25,5 km/h (4 Bft) SW45 220 0 min
24.10.2017 19:55 15,8 C 0,0 C 85 % 0 % 1018,9 hPa 0,0 l/m 22,3 km/h (4 Bft) S-SW45 210 0 min
24.10.2017 20:00 15,8 C 0,0 C 85 % 0 % 1018,9 hPa 0,0 l/m 23,1 km/h (4 Bft) SW22.5 220 0 min
24.10.2017 20:05 15,8 C 0,0 C 85 % 0 % 1019,9 hPa 0,0 l/m 22,5 km/h (4 Bft) SW45 220 0 min
24.10.2017 20:10 15,8 C 0,0 C 85 % 0 % 1019,9 hPa 0,0 l/m 21,3 km/h (4 Bft) SW45 220 0 min
24.10.2017 20:15 15,8 C 0,0 C 85 % 0 % 1018,9 hPa 0,0 l/m 20,9 km/h (4 Bft) SW45 215 0 min
24.10.2017 20:20 15,8 C 0,0 C 85 % 0 % 1018,9 hPa 0,0 l/m 22,3 km/h (4 Bft) SW67.5 225 0 min
24.10.2017 20:25 15,8 C 0,0 C 85 % 0 % 1018,9 hPa 0,0 l/m 21,5 km/h (4 Bft) SW67.5 225 0 min
24.10.2017 20:30 15,8 C 0,0 C 85 % 0 % 1018,9 hPa 0,0 l/m 25,3 km/h (4 Bft) SW67.5 235 0 min
24.10.2017 20:35 15,8 C 0,0 C 85 % 0 % 1018,9 hPa 0,0 l/m 21,1 km/h (4 Bft) SW22.5 225 0 min
24.10.2017 20:40 15,9 C 0,0 C 85 % 0 % 1018,9 hPa 0,0 l/m 20,9 km/h (4 Bft) SW45 215 0 min
24.10.2017 20:45 15,9 C 0,0 C 85 % 0 % 1018,9 hPa 0,0 l/m 21,8 km/h (4 Bft) SW45 215 0 min
24.10.2017 20:50 15,9 C 0,0 C 85 % 0 % 1018,9 hPa 0,0 l/m 25,1 km/h (4 Bft) SW45 220 0 min
24.10.2017 20:55 16,0 C 0,0 C 85 % 0 % 1018,9 hPa 0,0 l/m 24,1 km/h (4 Bft) SW45 220 0 min
24.10.2017 21:00 16,0 C 0,0 C 85 % 0 % 1018,9 hPa 0,0 l/m 22,7 km/h (4 Bft) SW22.5 230 0 min
24.10.2017 21:05 15,9 C 0,0 C 85 % 0 % 1018,9 hPa 0,0 l/m 21,7 km/h (4 Bft) SW45 220 0 min
24.10.2017 21:10 15,9 C 0,0 C 85 % 0 % 1018,9 hPa 0,0 l/m 23,7 km/h (4 Bft) SW67.5 220 0 min
24.10.2017 21:15 16,0 C 0,0 C 85 % 0 % 1018,9 hPa 0,0 l/m 28,4 km/h (5 Bft) SW45 225 0 min
24.10.2017 21:20 16,0 C 0,0 C 85 % 0 % 1018,9 hPa 0,0 l/m 22,8 km/h (4 Bft) SW45 220 0 min
24.10.2017 21:25 15,9 C 0,0 C 85 % 0 % 1018,9 hPa 0,0 l/m 27,4 km/h (5 Bft) SW45 220 0 min
24.10.2017 21:30 15,9 C 0,0 C 85 % 0 % 1018,9 hPa 0,0 l/m 27,0 km/h (5 Bft) SW67.5 220 0 min
24.10.2017 21:35 15,9 C 0,0 C 85 % 0 % 1018,9 hPa 0,0 l/m 23,5 km/h (4 Bft) SW45 220 0 min
24.10.2017 21:40 15,9 C 0,0 C 85 % 0 % 1018,9 hPa 0,0 l/m 27,5 km/h (5 Bft) SW45 220 0 min
24.10.2017 21:45 15,9 C 0,0 C 85 % 0 % 1018,9 hPa 0,0 l/m 24,6 km/h (4 Bft) SW45 220 0 min
24.10.2017 21:50 15,8 C 0,0 C 85 % 0 % 1018,9 hPa 0,0 l/m 23,4 km/h (4 Bft) SW45 225 0 min
24.10.2017 21:55 15,9 C 0,0 C 85 % 0 % 1018,9 hPa 0,0 l/m 24,3 km/h (4 Bft) SW45 225 0 min
24.10.2017 22:00 15,8 C 0,0 C 85 % 0 % 1018,9 hPa 0,0 l/m 24,2 km/h (4 Bft) SW45 225 0 min
24.10.2017 22:05 15,8 C 0,0 C 85 % 0 % 1018,9 hPa 0,0 l/m 20,9 km/h (4 Bft) SW45 225 0 min
24.10.2017 22:10 15,8 C 0,0 C 85 % 0 % 1018,9 hPa 0,0 l/m 18,4 km/h (3 Bft) SW45 225 0 min
24.10.2017 22:15 15,8 C 0,0 C 85 % 0 % 1018,9 hPa 0,0 l/m 20,5 km/h (4 Bft) SW45 220 0 min
24.10.2017 22:20 15,7 C 0,0 C 85 % 0 % 1018,9 hPa 0,0 l/m 21,1 km/h (4 Bft) SW45 225 0 min
24.10.2017 22:25 15,7 C 0,0 C 85 % 0 % 1018,9 hPa 0,0 l/m 19,8 km/h (3 Bft) SW45 215 0 min
24.10.2017 22:30 15,8 C 0,0 C 85 % 0 % 1018,9 hPa 0,0 l/m 19,8 km/h (3 Bft) SW45 215 0 min
24.10.2017 22:35 15,7 C 0,0 C 85 % 0 % 1018,9 hPa 0,0 l/m 20,5 km/h (4 Bft) SW45 215 0 min
24.10.2017 22:40 15,7 C 0,0 C 85 % 0 % 1018,9 hPa 0,0 l/m 23,1 km/h (4 Bft) SW22.5 230 0 min
24.10.2017 22:45 15,7 C 0,0 C 85 % 0 % 1018,9 hPa 0,0 l/m 21,2 km/h (4 Bft) SW67.5 230 0 min
24.10.2017 22:50 15,7 C 0,0 C 85 % 0 % 1018,9 hPa 0,0 l/m 17,7 km/h (3 Bft) SW45 225 0 min
24.10.2017 22:55 15,7 C 0,0 C 85 % 0 % 1019,9 hPa 0,0 l/m 17,7 km/h (3 Bft) SW45 225 0 min
24.10.2017 23:00 15,7 C 0,0 C 85 % 0 % 1019,9 hPa 0,0 l/m 21,5 km/h (4 Bft) SW45 230 0 min
24.10.2017 23:05 15,7 C 0,0 C 85 % 0 % 1019,9 hPa 0,0 l/m 22,0 km/h (4 Bft) SW22.5 225 0 min
24.10.2017 23:10 15,8 C 0,0 C 85 % 0 % 1019,9 hPa 0,0 l/m 23,6 km/h (4 Bft) SW22.5 220 0 min
24.10.2017 23:15 15,8 C 0,0 C 85 % 0 % 1019,9 hPa 0,0 l/m 20,9 km/h (4 Bft) SW22.5 225 0 min
24.10.2017 23:20 15,8 C 0,0 C 85 % 0 % 1019,9 hPa 0,0 l/m 24,5 km/h (4 Bft) SW45 220 0 min
24.10.2017 23:25 15,8 C 0,0 C 85 % 0 % 1018,9 hPa 0,0 l/m 20,8 km/h (4 Bft) SW45 230 0 min
24.10.2017 23:30 15,7 C 0,0 C 85 % 0 % 1019,9 hPa 0,0 l/m 22,5 km/h (4 Bft) SW45 225 0 min
24.10.2017 23:35 15,7 C 0,0 C 85 % 0 % 1019,9 hPa 0,0 l/m 20,3 km/h (4 Bft) SW45 230 0 min
24.10.2017 23:40 15,7 C 0,0 C 85 % 0 % 1019,9 hPa 0,0 l/m 26,5 km/h (4 Bft) SW45 225 0 min
24.10.2017 23:45 15,7 C 0,0 C 85 % 0 % 1018,9 hPa 0,0 l/m 23,3 km/h (4 Bft) SW45 225 0 min
24.10.2017 23:50 15,7 C 0,0 C 85 % 0 % 1018,9 hPa 0,0 l/m 19,3 km/h (3 Bft) SW22.5 220 0 min
24.10.2017 23:55 15,6 C 0,0 C 85 % 0 % 1018,9 hPa 0,0 l/m 21,7 km/h (4 Bft) SW45 220 0 min
_ Min-Zeit 04:55 00:00 00:00 00:00 06:20 - 01:35 - - -
Minimum _ 11,9 C 0,0 C 82 % 0 % 1018,9 hPa - 8,1 km/h (2 Bft) - - -
_ Max-Zeit 15:35 00:00 07:20 00:00 00:00 04:55 17:15 - - 00:00
Maximum _ 16,0 C 0,0 C 89 % 0 % 1019,9 hPa 0,1 l/m 30,1 km/h
SW (5 Bft)
- - 0 min
Durchschnitt _ 13,9 C 0,0 C 86 % 0 % 1019,5 hPa #0,8 l/m 17,6 km/h (3 Bft) SW - #0 min.